Regional Weather Roundup
Issued by NWS

Home | Current Version | Previous Version | Text Only | Print | Product List | Glossary On
Versions: 1 2 3 4 5 6 7 8 9 10 11 12 13 14 15 16 17 18 19 20 21 22 23 24 25 26 27 28 29 30 31 32 33 34 35 36 37 38 39 40 41 42 43 44 45 46 47 48 49 50
969
ASUS43 KMKX 060611
RWRWI

WISCONSIN REGIONAL WEATHER ROUNDUP
NATIONAL WEATHER SERVICE MILWAUKEE/SULLIVAN WI
1200 AM CST TUE DEC 06 2016

NOTE: "FAIR" INDICATES FEW OR NO CLOUDS BELOW 12,000 FEET WITH NO
SIGNIFICANT WEATHER AND/OR OBSTRUCTIONS TO VISIBILITY.

WIZ001-002-006>008-014>016-023>028-060700-
NORTHWEST WISCONSIN

CITY           SKY/WX    TMP DP  RH WIND       PRES   REMARKS
SUPERIOR ARPT  CLOUDY    37  32  84 S9        29.62F WCI  30
6HR MIN TEMP:  34; 6HR MAX TEMP:  37;

ASHLAND        CLOUDY    37  30  75 MISG      29.69F
6HR MIN TEMP:  34; 6HR MAX TEMP:  37; 6HR PCP:  0.04;

HAYWARD        CLOUDY    35  29  78 S10       29.67F WCI  27
6HR MIN TEMP:  34; 6HR MAX TEMP:  36;

SIREN          CLOUDY    37  32  83 S15       29.63F WCI  28
6HR MIN TEMP:  35; 6HR MAX TEMP:  37;

CUMBERLAND     CLOUDY    32  32 100 S15       29.67F WCI  22
RICE LAKE      LGT SNOW  34  32  92 SE13G22   29.71S WCI  25
6HR MIN TEMP:  34; 6HR MAX TEMP:  35;

CHETEK         RAIN      34  31  89 SE10      29.71F WCI  26
6HR MIN TEMP:  33; 6HR MAX TEMP:  35;

LADYSMITH      CLOUDY    35  31  84 SE9       29.74F WCI  28
6HR MIN TEMP:  34; 6HR MAX TEMP:  36;

EAU CLAIRE     LGT RAIN  35  30  82 S12       29.73F WCI  27
6HR MIN TEMP:  35; 6HR MAX TEMP:  37; 6HR PCP:  0.01;

MENOMONIE      LGT RAIN  35  32  90 SE9       29.72S WCI  28
6HR MIN TEMP:  35; 6HR MAX TEMP:  36;

NEW RICHMOND   CLOUDY    36  33  89 S15       29.66F WCI  27
6HR MIN TEMP:  36; 6HR MAX TEMP:  37;

OSCEOLA        CLOUDY    37  33  84 S14       29.68S WCI  29
6HR MIN TEMP:  36; 6HR MAX TEMP:  37;

$$

WIZ003>005-009-010-017-018-060700-
NORTH CENTRAL WISCONSIN

CITY           SKY/WX    TMP DP  RH WIND       PRES   REMARKS
MANITOWISH WTR CLOUDY    33  31  94 S9        29.74S WCI  25
6HR MIN TEMP:  32; 6HR MAX TEMP:  35;

ARBOR VITAE    CLOUDY    34  31  87 S8G16     29.74F WCI  27
6HR MIN TEMP:  34; 6HR MAX TEMP:  37;

WOODRUFF       CLOUDY    34  31  87 S8G16     29.74F WCI  27
6HR MIN TEMP:  34; 6HR MAX TEMP:  37;

RHINELANDER    PTCLDY    34  29  82 S7        29.78R WCI  28
6HR MIN TEMP:  33; 6HR MAX TEMP:  35; 6HR PCP: TRACE;

EAGLE RIVER    PTCLDY    33  29  86 S3        29.77R
6HR MIN TEMP:  32; 6HR MAX TEMP:  35;

LAND O LAKES   CLOUDY    34  31  89 SW3       29.79R
6HR MIN TEMP:  33; 6HR MAX TEMP:  35;

PHILLIPS       PTCLDY    32  29  88 S9        29.74S WCI  24
6HR MIN TEMP:  32; 6HR MAX TEMP:  33;

TOMAHAWK       CLOUDY    30  28  92 SE5       29.78F FOG     WCI  25
6HR MIN TEMP:  30; 6HR MAX TEMP:  32;

MEDFORD        CLEAR     29  28  93 SE8       29.76S WCI  21
6HR MIN TEMP:  29; 6HR MAX TEMP:  32;

MERRILL        MOCLDY    32  31  96 SW3       29.82R
6HR MIN TEMP:  32; 6HR MAX TEMP:  33;

$$

WIZ029-030-035-036-043>047-060700-
CENTRAL WISCONSIN

CITY           SKY/WX    TMP DP  RH WIND       PRES   REMARKS
WAUSAU         CLOUDY    31  29  92 SE5       29.79F WCI  26
6HR MIN TEMP:  31; 6HR MAX TEMP:  33;

MOSINEE        PTCLDY    30  30 100 S5        29.82R FOG     WCI  25
MARSHFIELD     MOCLDY    31  29  92 SE14      29.78F FOG     WCI  21
6HR MIN TEMP:  31; 6HR MAX TEMP:  33;

STEVENS POINT  PTCLDY    30  30 100 SE6       29.82F FOG     WCI  24
6HR MIN TEMP:  30; 6HR MAX TEMP:  31;

WAUPACA        CLOUDY    34  32  93 SE8       29.86F FOG     WCI  27
6HR MIN TEMP:  34; 6HR MAX TEMP:  35;

WAUTOMA        CLOUDY    32  30  92 SE8       29.85F WCI  25
6HR MIN TEMP:  32; 6HR MAX TEMP:  33;

WISC RAPIDS    CLOUDY    32  31  96 S5        29.84R WCI  27
6HR MIN TEMP:  32; 6HR MAX TEMP:  33;

CAMP DOUGLAS   CLOUDY    32  30  93 SE12      29.80F WCI  23
6HR MIN TEMP:  32; 6HR MAX TEMP:  34;

$$

WIZ011>013-019>022-031-037>040-048>050-060700-
NORTHEAST WISCONSIN

CITY           SKY/WX    TMP DP  RH WIND       PRES   REMARKS
ANTIGO         CLOUDY    30  30 100 SE17      29.81F FOG     WCI  18
6HR MIN TEMP:  30; 6HR MAX TEMP:  32;

SHAWANO        CLOUDY    34  32  91 CALM      29.89R
6HR MIN TEMP:  34; 6HR MAX TEMP:  35;

OCONTO         CLOUDY    36  34  93 S6        29.87F WCI  31
6HR MIN TEMP:  33; 6HR MAX TEMP:  36;

STURGEON BAY   CLOUDY    38  37  97 S13       29.89F WCI  30
6HR MIN TEMP:  33; 6HR MAX TEMP:  38;

GREEN BAY      CLOUDY    36  34  93 SE12      29.88F WCI  27
6HR MIN TEMP:  35; 6HR MAX TEMP:  36;

MANITOWOC      CLOUDY    39  36  89 S16       29.90F WCI  30
6HR MIN TEMP:  33; 6HR MAX TEMP:  39;

APPLETON       CLOUDY    32  32 100 S9        29.86S WCI  24
CLINTONVILLE   CLOUDY    32  32 100 S5        29.88S FOG     WCI  27
OSHKOSH        CLOUDY    32  30  92 S9        29.88S FOG     WCI  24
6HR MIN TEMP:  32; 6HR MAX TEMP:  33;

$$

WIZ032>034-041-042-053>061-060700-
SOUTHWEST WISCONSIN

CITY           SKY/WX    TMP DP  RH WIND       PRES   REMARKS
LA CROSSE      CLOUDY    36  31  82 S16       29.79F WCI  26
6HR MIN TEMP:  36; 6HR MAX TEMP:  38;

SPARTA         PTCLDY    33  31  92 S5        29.82R WCI  29
6HR MIN TEMP:  33; 6HR MAX TEMP:  35;

VIROQUA        CLOUDY    32  32  99 S12       29.80R WCI  23
6HR MIN TEMP:  32; 6HR MAX TEMP:  32;

BOSCOBEL       CLOUDY    33  30  88 CALM      29.85F
6HR MIN TEMP:  33; 6HR MAX TEMP:  36;

PRAIRIE DU CHI CLOUDY    33  30  86 S7        29.84S WCI  27
6HR MIN TEMP:  33; 6HR MAX TEMP:  34;

PLATTEVILLE    CLOUDY    31  31 100 SE14      29.83F WCI  20
6HR MIN TEMP:  31; 6HR MAX TEMP:  33;

$$

WIZ056-057-062-063-064-067-068-060700-
SOUTH CENTRAL WISCONSIN

CITY           SKY/WX    TMP DP  RH WIND       PRES   REMARKS
REEDSBURG      CLOUDY    32  31  98 S6        29.84F WCI  26
6HR MIN TEMP:  31; 6HR MAX TEMP:  32;

BARABOO/DELLS  CLOUDY    32  30  94 SE6       29.84S FOG     WCI  26
6HR MIN TEMP:  32; 6HR MAX TEMP:  32;

LONE ROCK      CLOUDY    32  29  88 SE9       29.86F WCI  24
6HR MIN TEMP:  32; 6HR MAX TEMP:  34;

MINERAL POINT  CLOUDY    32  32 100 SE10G18   29.82F FOG     WCI  24
MADISON        CLOUDY    31  29  92 SE10      29.88F WCI  22
6HR MIN TEMP:  31; 6HR MAX TEMP:  33;

MIDDLETON      NOT AVBL
WATERTOWN      CLOUDY    31  31 100 SE6       29.89F FOG     WCI  26
6HR MIN TEMP:  31; 6HR MAX TEMP:  31;

MONROE         FOG       30  30 100 SE15      29.86F VSB 3/4 WCI  19
JANESVILLE     CLOUDY    32  32 100 S3        29.89F FOG
$$

WIZ051-052-058>065-066-070>072-060700-
SOUTHEAST WISCONSIN

CITY           SKY/WX    TMP DP  RH WIND       PRES   REMARKS
MILWAUKEE      CLOUDY    37  33  85 S12       29.90F WCI  29
6HR MIN TEMP:  34; 6HR MAX TEMP:  37;

WAUKESHA       CLOUDY    32  32 100 S6        29.91R FOG     WCI  26
MILWAUKEE/TIMM CLOUDY    34  32  93 S10       29.91S WCI  26
RACINE         CLOUDY    37  33  85 SE14      29.92F WCI  28
6HR MIN TEMP:  33; 6HR MAX TEMP:  37;

BURLINGTON     CLOUDY    31  30  97 CALM      29.91S FOG
6HR MIN TEMP:  31; 6HR MAX TEMP:  32;

KENOSHA        NOT AVBL
FOND DU LAC    CLOUDY    34  30  85 S13       29.89F FOG     WCI  25
6HR MIN TEMP:  32; 6HR MAX TEMP:  34;

SHEBOYGAN      CLOUDY    38  35  89 S8        29.90F WCI  32
6HR MIN TEMP:  32; 6HR MAX TEMP:  38;

WEST BEND      CLOUDY    34  34 100 S6        29.89F FOG     WCI  29
JUNEAU         CLOUDY    31  30  95 SE8       29.90S FOG     WCI  24
6HR MIN TEMP:  31; 6HR MAX TEMP:  31;

$$

LSZ147-162-060700-
LAKE SUPERIOR

STATION/POSITION TIME  TEMP    WIND        PRES    WAVE
                       AIR SEA DIR/SP/G            HT/PER
                 (UTC) (F)     (DEG/KT/KT) (MB)    (FT/S)
DEVILS ISLAND    0600   40     160/ 10/ 16 1005.8F
PORT WING        0530   38     150/  7/ 13 1004.7F
SAXON HARBOR     0540   41     180/  8/ 16 1006.1F
$$

LMZ867-665-643>646-060700-
LAKE MICHIGAN

STATION/POSITION TIME  TEMP    WIND        PRES    WAVE
                       AIR SEA DIR/SP/G            HT/PER
                 (UTC) (F)     (DEG/KT/KT) (MB)    (FT/S)
CHAMBERS ISLAND  0540   38     120/  6/  C1F1C2F2C3F3C4F4C5F5C6F6C7F7C8M1C9M2Ca!



USA.gov is the U.S. government's official web portal to all federal, state and local government web resources and services.